Wind_Speed
12 13 15 15 16 15 15 16 16 16 16 17 17 17 17 17 18 18 19 19 19 19 20 20 20 20 20 20 21 21 21 21 21 21 21 21 21 21 21 21 21 21 20
11 12 13 14 15 15 15 16 17 17 17 17 18 18 18 18 19 20 20 21 21 22 23 23 23 24 24 24 24 25 25 25 25 25 25 25 25 25 25 25 25 25 24
10 12 12 13 14 14 16 17 18 18 18 18 19 19 19 20 20 21 22 23 24 25 25 26 26 26 27 28 28 28 29 29 29 29 29 29 29 29 29 28 28 28 28
9 10 11 12 13 14 15 15 16 18 19 20 20 21 22 22 23 24 25 26 26 27 28 28 29 29 30 31 31 32 32 33 33 33 32 32 32 32 32 32 32 32 31
9 10 11 13 14 14 14 15 17 18 20 21 22 24 24 25 26 27 27 28 29 30 31 31 32 33 33 34 34 34 35 35 35 35 35 35 35 36 35 35 35 35 35
11 12 13 14 14 15 16 17 18 19 20 22 23 24 26 27 28 29 30 31 32 33 33 34 35 36 36 36 37 38 38 38 37 37 38 38 38 38 38 38 38 38 38
13 13 14 15 16 17 18 19 20 20 21 23 23 25 26 28 30 31 33 34 34 35 36 37 37 38 39 39 39 39 40 40 40 40 40 40 40 39 39 40 40 40 40
15 16 16 17 18 20 20 21 23 23 24 25 26 27 28 29 31 32 33 34 36 37 38 39 39 40 39 40 41 40 40 40 41 41 41 42 42 41 41 41 42 43 43
18 19 19 19 20 21 21 23 24 25 26 28 28 29 30 31 32 34 34 35 36 37 38 39 39 40 40 40 40 41 41 42 42 43 43 43 44 44 44 44 45 46 46
21 21 22 22 22 23 23 25 26 27 29 31 31 32 32 32 33 35 36 37 37 38 38 39 40 41 42 42 43 43 44 44 45 46 45 45 46 46 46 47 47 48 48
23 24 24 25 25 26 26 28 29 30 31 32 33 33 34 35 36 37 39 40 40 40 41 42 42 44 45 45 45 45 45 46 47 48 47 47 48 48 48 49 49 49 49
26 26 25 26 27 28 28 30 30 31 32 33 34 35 35 37 38 39 40 41 42 42 42 43 44 45 46 46 47 47 48 48 49 49 50 49 49 49 49 49 50 50 49
26 26 26 27 28 29 30 31 32 33 34 35 36 37 38 39 41 42 42 43 44 44 44 45 46 47 48 49 49 50 49 49 49 50 50 50 51 51 51 51 52 52 52
27 28 28 28 29 30 31 32 33 34 35 35 37 38 39 41 42 43 44 45 46 46 46 46 47 48 48 49 49 50 51 51 51 51 52 52 52 52 53 53 53 53 54
27 28 28 29 30 31 32 33 33 34 35 36 37 39 40 41 42 44 44 45 45 46 47 47 48 48 50 50 49 49 50 51 51 51 52 53 53 53 53 53 54 54 54
27 27 28 29 30 31 32 32 33 35 36 37 38 40 41 42 43 43 44 45 46 47 48 49 49 49 50 50 51 51 51 51 52 52 52 52 52 52 53 53 53 53 53
28 28 29 29 30 31 32 33 34 35 36 38 40 41 42 43 44 45 46 47 48 48 49 49 49 50 50 50 50 50 50 50 50 50 51 51 50 51 51 52 51 51 51
26 27 28 29 30 32 33 34 36 37 39 40 42 43 44 45 46 47 47 48 49 49 49 50 50 50 50 50 50 50 50 50 50 50 50 50 50 50 50 51 50 50 49
25 27 28 30 32 34 35 36 38 40 42 43 44 44 45 46 47 47 48 48 49 49 49 49 49 49 49 49 49 49 49 49 49 49 49 49 49 49 49 49 48 48 47
27 28 30 32 34 36 37 38 40 41 42 43 44 45 46 47 47 47 47 47 48 48 48 48 48 47 47 46 46 46 46 46 46 46 46 46 46 46 46 46 46 45 44
29 31 33 34 36 37 38 40 41 42 43 44 44 45 45 46 46 46 46 46 46 46 45 44 44 44 43 43 43 43 43 43 43 43 43 43 43 43 43 43 42 42 41
31 33 34 36 37 39 40 41 42 43 44 44 44 44 44 44 45 45 45 44 43 42 41 41 41 40 40 40 39 39 39 39 40 40 40 40 40 39 39 38 38 38 38
33 35 36 38 39 40 41 43 43 43 43 43 43 43 42 42 42 41 41 40 40 38 37 37 37 37 36 36 36 36 36 35 34 34 34 34 34 34 34 34 34 34 34
35 37 38 40 41 42 43 43 43 42 42 42 41 41 40 39 39 38 38 37 36 35 35 34 34 34 33 33 32 32 32 32 32 31 30 30 30 30 30 30 30 30 30
37 39 40 41 42 42 42 42 41 41 40 39 39 38 37 37 36 35 34 33 32 32 32 32 31 30 30 30 30 30 30 29 28 27 27 27 27 27 27 27 27 28 28
39 40 41 41 41 41 40 40 39 38 37 36 35 34 34 33 32 31 30 29 29 29 29 29 28 28 28 28 28 27 27 26 25 25 25 25 25 24 24 24 24 25 25
Wind_Direction
209 210 213 215 218 221 222 225 228 230 233 235 237 238 241 244 246 248 250 253 256 260 264 268 271 274 278 280 281 283 284 285 285 286 286 286 286 285 283 284 284 284 284
214 214 216 219 223 224 226 230 233 235 237 240 241 243 245 248 250 251 254 256 259 262 266 269 272 274 276 278 280 281 282 283 283 284 284 283 283 282 281 280 281 281 282
223 222 223 225 227 230 234 236 238 239 242 243 246 249 251 253 255 256 258 260 263 266 268 270 273 275 276 277 278 280 281 281 282 282 281 281 281 281 280 279 278 278 279
231 228 229 230 231 236 240 242 242 244 246 248 251 254 256 257 259 260 262 264 266 268 270 271 273 275 276 277 278 280 280 280 280 281 281 280 279 279 279 278 277 277 277
238 236 237 238 240 244 248 249 250 251 253 254 256 258 260 261 263 264 266 267 269 271 272 273 273 275 277 278 278 279 281 280 279 279 279 278 278 278 278 278 278 278 278
247 246 245 246 247 250 252 254 256 258 259 260 263 264 264 265 266 267 268 271 272 273 273 274 275 276 277 278 278 279 280 279 278 278 278 278 277 276 276 276 276 277 278
255 252 251 252 253 256 257 258 259 262 264 266 269 269 269 271 271 271 271 272 273 274 274 274 275 276 276 277 278 279 280 279 278 277 276 276 275 275 276 276 276 277 277
260 259 258 257 258 261 263 263 263 265 268 270 271 273 274 274 275 276 276 275 276 277 276 276 277 278 278 278 277 278 279 278 278 278 277 275 274 275 275 276 276 276 276
260 262 264 263 263 264 266 266 267 268 270 271 273 275 276 277 278 279 280 280 280 280 280 279 279 279 279 279 278 278 278 277 276 276 276 276 274 274 274 275 275 275 275
262 264 263 264 266 267 267 268 269 271 273 274 274 276 277 278 280 281 283 283 282 280 280 280 279 279 279 278 278 277 277 276 275 276 276 276 276 275 275 274 275 276 276
263 264 264 264 265 268 269 270 273 274 276 277 276 276 277 278 280 281 282 283 283 282 281 281 281 280 280 279 279 278 277 277 277 277 277 277 277 277 277 277 277 277 277
262 262 263 265 267 269 271 272 273 274 276 278 278 277 278 279 280 281 283 283 283 283 282 282 282 281 280 280 280 280 279 278 277 277 277 277 278 278 278 277 278 278 278
260 261 263 266 267 269 271 273 275 277 277 278 279 279 279 280 281 282 283 284 284 283 282 282 282 281 280 280 280 280 280 280 280 279 278 278 278 278 278 278 278 278 279
260 261 264 266 268 271 273 274 276 278 278 279 280 281 281 281 282 282 283 283 283 283 282 281 281 281 282 282 281 280 279 280 280 280 279 279 279 279 280 280 280 280 279
260 263 264 267 270 273 275 277 278 279 279 280 281 282 282 282 283 283 283 284 284 284 283 282 281 281 282 282 281 281 281 280 280 280 280 280 280 281 282 282 282 281 281
262 264 266 270 273 275 277 279 280 281 281 281 282 283 283 284 284 284 285 285 285 285 284 284 284 283 284 283 282 282 281 281 281 281 281 281 281 281 281 281 282 281 281
263 266 270 273 275 278 280 281 282 283 283 284 284 284 284 285 286 287 287 287 287 286 286 286 286 285 284 284 283 283 282 282 281 281 281 281 281 281 280 281 281 281 281
266 270 274 276 279 281 283 284 285 286 286 286 286 286 287 288 289 289 289 289 288 288 287 287 286 286 286 285 284 283 282 282 281 281 281 280 280 280 280 280 280 281 281
275 278 279 281 283 285 287 288 289 289 290 290 290 290 290 290 291 291 291 291 290 289 289 288 288 287 287 286 285 284 284 283 282 282 281 280 280 280 280 280 280 280 280
280 282 283 285 287 289 290 291 292 293 293 293 293 293 293 293 293 293 292 291 291 290 290 289 289 288 287 286 286 286 286 285 284 283 282 281 281 280 280 280 280 279 280
284 286 288 289 291 292 292 293 294 295 296 296 296 296 296 296 295 295 295 294 293 292 291 290 289 289 288 288 287 287 286 285 284 283 282 281 281 280 279 279 278 278 278
289 291 293 293 293 294 295 296 296 297 297 297 297 297 297 297 297 296 296 295 295 294 293 292 292 291 291 290 289 288 287 286 285 284 283 282 281 280 279 278 278 278 278
294 295 295 296 296 297 297 298 298 299 299 298 298 299 299 299 299 298 297 296 295 294 293 293 293 292 291 290 289 289 289 289 289 288 287 285 284 282 282 281 280 279 279
296 297 298 298 299 299 299 299 300 300 299 299 300 300 301 300 300 299 298 297 295 295 294 294 295 293 291 290 290 291 291 290 290 289 289 287 286 285 284 282 281 280 281
299 299 300 300 300 300 300 300 300 300 300 300 300 300 301 301 301 301 301 300 298 297 296 295 295 294 293 292 292 292 292 292 291 290 289 289 289 288 286 283 282 282 283
300 300 301 301 301 301 301 301 301 301 300 300 300 301 302 302 302 301 302 301 300 299 298 297 296 295 295 294 294 294 293 293 293 291 291 291 291 289 288 286 284 285 286
Height
5838 5841 5843 5846 5848 5850 5852 5855 5857 5859 5861 5863 5865 5866 5867 5869 5870 5871 5872 5873 5873 5873 5874 5874 5874 5873 5873 5873 5872 5871 5871 5870 5869 5868 5867 5866 5865 5864 5863 5862 5861 5861 5860
5837 5840 5842 5844 5846 5848 5850 5852 5854 5856 5857 5859 5861 5862 5863 5864 5865 5866 5867 5867 5868 5868 5868 5869 5868 5868 5867 5867 5866 5866 5865 5864 5863 5862 5861 5860 5859 5858 5857 5856 5855 5854 5854
5836 5838 5840 5842 5844 5845 5847 5848 5849 5852 5854 5855 5857 5858 5859 5860 5861 5861 5862 5862 5862 5862 5862 5862 5862 5861 5861 5860 5860 5859 5858 5857 5856 5855 5854 5853 5852 5851 5850 5849 5848 5848 5847
5835 5836 5838 5840 5841 5843 5844 5845 5846 5848 5849 5851 5852 5853 5854 5855 5855 5855 5856 5856 5856 5856 5856 5855 5854 5854 5853 5853 5852 5851 5850 5849 5848 5847 5846 5845 5844 5843 5842 5841 5841 5840 5839
5833 5835 5836 5837 5839 5840 5842 5843 5844 5845 5845 5846 5847 5848 5848 5849 5849 5849 5849 5849 5849 5848 5848 5847 5847 5846 5845 5844 5843 5842 5841 5840 5839 5838 5837 5836 5835 5834 5833 5832 5831 5831 5830
5831 5832 5833 5834 5835 5837 5838 5839 5840 5841 5841 5841 5842 5842 5842 5842 5842 5842 5842 5841 5841 5840 5839 5839 5838 5837 5836 5835 5834 5833 5832 5830 5829 5828 5827 5826 5825 5823 5823 5822 5821 5821 5820
5827 5828 5829 5830 5831 5832 5833 5834 5835 5835 5836 5836 5836 5835 5835 5835 5835 5834 5834 5833 5832 5831 5830 5829 5828 5827 5826 5825 5824 5822 5821 5819 5818 5817 5816 5815 5814 5813 5812 5811 5810 5809 5809
5824 5824 5825 5826 5827 5827 5828 5828 5829 5829 5829 5829 5829 5829 5828 5828 5827 5826 5825 5823 5823 5821 5820 5819 5818 5816 5815 5813 5812 5811 5810 5809 5807 5805 5804 5803 5802 5801 5800 5799 5798 5797 5797
5819 5820 5820 5821 5821 5822 5822 5822 5822 5822 5822 5822 5821 5821 5820 5819 5818 5817 5815 5814 5813 5811 5810 5808 5807 5805 5804 5802 5800 5799 5798 5797 5795 5793 5792 5790 5789 5788 5787 5786 5785 5784 5784
5813 5814 5814 5815 5815 5815 5815 5815 5815 5815 5815 5814 5813 5812 5811 5810 5809 5807 5806 5804 5803 5801 5799 5797 5795 5794 5792 5790 5788 5787 5785 5784 5782 5780 5779 5777 5776 5774 5773 5772 5771 5770 5769
5807 5807 5808 5808 5809 5809 5808 5808 5807 5807 5806 5805 5804 5803 5802 5801 5800 5798 5796 5794 5792 5790 5788 5786 5784 5782 5780 5778 5775 5773 5772 5770 5768 5766 5765 5763 5762 5760 5759 5757 5756 5755 5754
5800 5800 5801 5801 5801 5801 5801 5800 5799 5799 5798 5796 5795 5794 5792 5791 5789 5787 5785 5783 5781 5779 5776 5774 5771 5769 5767 5765 5762 5760 5758 5756 5754 5752 5750 5749 5747 5746 5744 5742 5741 5739 5738
5793 5793 5794 5794 5793 5793 5792 5792 5791 5790 5789 5787 5786 5784 5782 5780 5778 5776 5774 5772 5769 5767 5764 5761 5758 5756 5753 5751 5748 5746 5744 5741 5739 5737 5735 5734 5732 5730 5728 5727 5725 5723 5722
5785 5786 5786 5786 5785 5784 5784 5783 5782 5781 5779 5777 5776 5774 5771 5769 5767 5764 5762 5759 5756 5753 5750 5747 5745 5742 5739 5736 5734 5731 5729 5727 5724 5722 5720 5718 5716 5714 5712 5711 5709 5707 5706
5777 5777 5777 5777 5777 5776 5775 5774 5772 5771 5769 5767 5765 5763 5760 5757 5755 5752 5749 5746 5743 5740 5736 5733 5730 5727 5724 5721 5719 5716 5714 5711 5709 5706 5704 5702 5700 5698 5696 5694 5692 5690 5688
5770 5770 5769 5769 5768 5767 5766 5764 5762 5761 5759 5757 5754 5752 5749 5746 5742 5740 5736 5733 5729 5726 5723 5719 5716 5713 5710 5707 5704 5701 5698 5696 5693 5691 5688 5686 5684 5682 5680 5678 5675 5674 5672
5761 5761 5761 5760 5759 5758 5756 5754 5753 5751 5748 5746 5743 5740 5737 5733 5730 5726 5723 5719 5715 5711 5708 5704 5701 5697 5694 5691 5688 5685 5682 5679 5677 5675 5672 5670 5668 5666 5663 5661 5659 5657 5655
5753 5753 5752 5751 5750 5748 5746 5744 5742 5739 5737 5734 5731 5727 5724 5720 5716 5712 5709 5704 5700 5696 5692 5689 5685 5682 5678 5675 5672 5669 5666 5663 5660 5658 5656 5654 5651 5649 5647 5645 5643 5641 5639
5746 5745 5744 5742 5741 5739 5736 5734 5731 5727 5724 5720 5717 5714 5710 5706 5702 5698 5694 5690 5685 5681 5677 5673 5670 5666 5662 5659 5656 5653 5650 5647 5644 5642 5639 5637 5635 5632 5630 5628 5627 5625 5623
5738 5736 5735 5733 5731 5728 5725 5722 5719 5715 5711 5707 5704 5700 5696 5692 5688 5683 5679 5674 5670 5666 5662 5658 5654 5650 5647 5643 5640 5637 5634 5631 5628 5625 5623 5621 5619 5616 5615 5613 5611 5610 5608
5729 5727 5725 5723 5720 5717 5714 5710 5707 5703 5699 5694 5690 5686 5682 5677 5673 5668 5664 5660 5655 5651 5647 5643 5639 5636 5632 5629 5626 5622 5619 5616 5613 5610 5608 5606 5603 5601 5599 5598 5596 5595 5594
5720 5717 5715 5712 5709 5705 5702 5698 5694 5690 5685 5681 5677 5673 5668 5664 5659 5654 5650 5645 5641 5637 5633 5630 5626 5622 5619 5616 5612 5609 5605 5602 5599 5597 5594 5591 5589 5587 5585 5584 5582 5581 5580
5710 5707 5704 5701 5697 5694 5690 5686 5681 5677 5672 5668 5664 5659 5655 5651 5646 5641 5637 5632 5628 5625 5621 5617 5614 5610 5606 5603 5599 5596 5593 5590 5587 5584 5582 5579 5577 5575 5573 5572 5571 5570 5568
5700 5696 5693 5689 5685 5681 5677 5673 5668 5664 5660 5655 5651 5647 5643 5638 5634 5629 5625 5620 5616 5613 5609 5606 5602 5599 5595 5592 5588 5585 5582 5579 5576 5574 5571 5569 5567 5565 5563 5562 5560 5559 5558
5689 5685 5681 5677 5673 5669 5665 5661 5656 5652 5648 5644 5639 5635 5631 5627 5622 5618 5614 5610 5606 5602 5599 5595 5592 5588 5585 5582 5579 5576 5573 5570 5567 5565 5562 5560 5558 5556 5554 5553 5551 5550 5549
5678 5674 5670 5665 5661 5657 5653 5649 5645 5641 5637 5633 5629 5625 5621 5617 5612 5608 5604 5600 5597 5593 5589 5586 5582 5579 5576 5573 5570 5567 5564 5562 5559 5556 5554 5552 5550 5548 5546 5545 5543 5542 5540